Simultaneous Nadir Overpasses (SNOs) Predictions

Prediction of SNOs between GOES-17 and METOP-C Satellite Orbit:

Table of predicted SNOs for the next 14.0 days since TLE Epoch: 8/23/2019
Index Date Time (GOES-17) GOES-17 Lat,Lon METOP-C Lat,Lon Distance(km) Time Diff (sec)
1 08/24/2019 06:55:12 -0.02,-137.21 -0.77,-140.63 389.89 80
2 08/25/2019 06:31:52 -0.02,-137.21 0.34,-135.64 179.04 80
3 08/26/2019 18:53:23 0.02,-137.21 0.66,-140.20 340.29 80
4 08/27/2019 18:30:04 0.02,-137.20 -0.45,-135.20 228.14 80
5 08/29/2019 06:51:44 -0.02,-137.18 -0.62,-139.79 297.88 80
6 08/30/2019 06:28:25 -0.02,-137.17 0.48,-134.80 270.14 80
7 08/31/2019 18:49:56 0.02,-137.16 0.51,-139.36 250.24 80
8 09/01/2019 18:26:37 0.02,-137.15 -0.60,-134.36 317.59 80
9 09/03/2019 06:48:18 -0.02,-137.13 -0.42,-138.96 209.13 80
10 09/04/2019 06:24:58 -0.02,-137.11 0.69,-133.97 358.42 80
11 09/05/2019 18:46:29 0.03,-137.09 0.36,-138.52 162.78 80




NCC Satellite Simultaneous Nadir Overpasses (SNOs) Prediction Service
